Regional Weather Roundup
Issued by NWS

Home | Current Version | Previous Version | Graphics & Text | Print | Product List | Glossary On
Versions: 1 2 3 4 5 6 7 8 9 10 11 12 13 14 15 16 17 18 19 20 21 22 23 24 25 26 27 28 29 30 31 32 33 34 35 36 37 38 39 40 41 42 43 44 45 46 47 48 49 50
000
ASUS45 KBOU 012007
RWRCO

WEATHER ROUNDUP FOR COLORADO
NATIONAL WEATHER SERVICE DENVER/BOULDER CO
200 PM MDT TUE SEP 01 2015

NOTE: "FAIR" INDICATES FEW OR NO CLOUDS BELOW 12000 FEET WITH NO
SIGNIFICANT WEATHER AND/OR OBSTRUCTIONS TO VISIBILITY.

COZ001>005-013-030-031-012100-
...NORTHWEST COLORADO...

CITY           SKY/WX    TMP DP  RH WIND       PRES   REMARKS
CRAIG          MOSUNNY   80  45  28 S7G18     30.15F
HAYDEN         NOT AVBL
MEEKER         CLOUDY    75  46  35 W8        30.18S
MOUNT WERNER   NOT AVBL
STEAMBOAT SPGS MOSUNNY   73  44  34 SW8       30.21R
WALDEN         MOSUNNY   73  32  21 W8        30.28F
$$

COZ006>008-011-012100-
...WEST CENTRAL VALLEYS...

CITY           SKY/WX    TMP DP  RH WIND       PRES   REMARKS
GRAND JUNCTION MOSUNNY   81  50  33 E5        30.09F
MONTROSE       MOSUNNY   85  43  22 NE7       30.15F
EAGLE          NOT AVBL
RIFLE          MOSUNNY   75  50  41 S6        30.15F
DELTA          MOSUNNY   87  40  19 S6        30.11F
NUCLA          MOSUNNY   84  37  18 SW7       30.20F
$$

COZ017>023-064>068-012100-
...SOUTHWEST COLORADO...

CITY           SKY/WX    TMP DP  RH WIND       PRES   REMARKS
DURANGO        MOSUNNY   80  41  24 SW12      30.23F
CORTEZ         SUNNY     83  44  25 VRB6      30.18F
PAGOSA SPRINGS MOSUNNY   77  30  18 SW9       30.31F
TELLURIDE      MOSUNNY   70  37  30 CALM      30.42S
WOLF CREEK PAS PTSUNNY   55  36  47 SW7G22    30.64S
$$

COZ009-010-012-014-032>034-037-058>063-012100-
...CENTRAL COLORADO...

CITY           SKY/WX    TMP DP  RH WIND       PRES   REMARKS
ASPEN          CLOUDY    65  50  58 NW6       30.33R
BUENA VISTA    NOT AVBL
COPPER MTN     PTSUNNY   61  28  29 W7G16     30.61F
BERTHOUD PASS  FAIR      50  36  57 N8        30.66R
COTTONWOOD PAS CLOUDY    66  41  39 CALM      30.44S
GUNNISON       MOSUNNY   75  36  23 SW7       30.31F
KREMMLING      CLOUDY    54  41  62 NE8G24    30.32R
LEADVILLE      PTSUNNY   65  33  30 N10       30.43S
MONARCH PASS   MOSUNNY   59  34  38 SW10      30.71S
SALIDA         PTSUNNY   79  38  22 NE3       30.32F
SUNLIGHT       PTSUNNY   63  48  59 CALM      30.55S THUNDER
WILKERSON PASS PTSUNNY   57  32  38 N7        30.57S
$$

COZ069>075-012100-
...SAN LUIS VALLEY/SANGRE DE CRISTO MOUNTAINS...

CITY           SKY/WX    TMP DP  RH WIND       PRES   REMARKS
ALAMOSA        SUNNY     75  42  30 S8        30.29F
LA VETA PASS   CLOUDY    64  39  39 S6        30.49S
SAGUACHE       SUNNY     79  41  25 S7        30.29F
$$

COZ035-036-038>040-012100-
...NORTHERN COLORADO FRONT RANGE...

CITY           SKY/WX    TMP DP  RH WIND       PRES   REMARKS
DENVER INTL AP MOSUNNY   87  36  16 VRB3      30.07F
DMNS CITY PARK   N/A     88  37  16 S5G12     30.06S
AURORA         MOSUNNY   85  41  20 N8        30.10F
FRONT RANGE AP MOSUNNY   86  36  16 MISG      30.10F
ERIE MUNI ARPT SUNNY     89  33  13 CALM      30.03F
BOULDER MUN AP MOSUNNY   86  34  15 N5        30.04F
CENTENNIAL     MOSUNNY   83  36  18 VRB6      30.11F
BROOMFIELD     MOSUNNY   86  32  14 NW5       30.08F
FORT COLLINS   SUNNY     88  45  22 NE7       30.02F
LONGMONT       SUNNY     89  36  15 N6        30.04F
$$

COZ041-046-047-076>085-087-088-012100-
...PIKES PEAK/PALMER DIVIDE AND SOUTHERN FOOTHILLS...

CITY           SKY/WX    TMP DP  RH WIND       PRES   REMARKS
COLO. SPRINGS  MOSUNNY   84  38  19 E12       30.15F
A. F. ACADEMY  MOSUNNY   81  38  21 CALM      30.16F
ELLICOTT       SUNNY    N/A N/A N/A CALM      30.14F
FALCON         SUNNY     82  36  19 MISG      30.22S
FORT CARSON    SUNNY     85  44  23 VRB6      30.13S
LIMON          SUNNY     84  42  22 VRB3      30.10F
MONUMENT HILL  SUNNY     79  36  21 SE8       30.22F
TRINIDAD       PTSUNNY   86  40  19 S8        30.13F
$$

COZ042>045-048>051-090-091-012100-
...NORTHEAST COLORADO...

CITY           SKY/WX    TMP DP  RH WIND       PRES   REMARKS
GREELEY ARPT   SUNNY     90  39  17 CALM      30.03F
AKRON          SUNNY     89  35  14 VRB5      30.04F
BURLINGTON     MOSUNNY   88  50  27 CALM      30.03S
WRAY           CLOUDY    94  46  19 SW3       29.98F
STERLING       NOT AVBL
HOLYOKE        SUNNY     91  52  25 S5        29.97F
FORT MORGAN    SUNNY     90  32  12 NW3       30.03F
$$

COZ086-089-092>099-012100-
...SOUTHEAST COLORADO...

CITY           SKY/WX    TMP DP  RH WIND       PRES   REMARKS
PUEBLO         SUNNY     92  42  17 E9        30.04F
LA JUNTA       MOSUNNY   91  48  22 MISG      30.01F
LAMAR          SUNNY     90  58  33 E5        29.98F
SPRINGFIELD      N/A     89  54  30 CALM      30.04F
$$




USA.gov is the U.S. government's official web portal to all federal, state and local government web resources and services.